| time (UTC) | temp F | wind direction | speed MPH | gust MPH | rain 1hr in | rain 24hr in | rain mn in | humidity % | barometer mb |
| 20260507025044 | 51 | 307 | 7.0 | 11.0 | 0.00 | 0.00 | 0.00 | 95 | 1018.9 |
| 20260507024554 | 51 | 295 | 6.0 | 11.0 | 0.00 | 0.00 | 0.00 | 95 | 1018.8 |
| 20260507024045 | 51 | 304 | 7.0 | 11.0 | 0.00 | 0.00 | 0.00 | 94 | 1018.8 |
| 20260507023544 | 51 | 308 | 7.0 | 11.0 | 0.00 | 0.00 | 0.00 | 94 | 1018.7 |
| 20260507023054 | 51 | 313 | 7.0 | 11.0 | 0.00 | 0.00 | 0.00 | 94 | 1018.8 |
| 20260507022544 | 51 | 311 | 7.0 | 11.0 | 0.00 | 0.00 | 0.00 | 94 | 1018.7 |
| 20260507022043 | 52 | 299 | 8.0 | 11.0 | 0.00 | 0.00 | 0.00 | 94 | 1018.8 |
| 20260507021549 | 52 | 309 | 7.0 | 11.0 | 0.00 | 0.00 | 0.00 | 94 | 1018.8 |
| 20260507021044 | 52 | 315 | 6.0 | 13.0 | 0.00 | 0.00 | 0.00 | 94 | 1018.8 |
| 20260507020544 | 52 | 318 | 8.0 | 13.0 | 0.00 | 0.00 | 0.00 | 93 | 1018.8 |
| 20260507020052 | 52 | 303 | 7.0 | 12.0 | 0.00 | 0.00 | 0.00 | 93 | 1018.9 |
| 20260507015544 | 52 | 300 | 7.0 | 12.0 | 0.00 | 0.00 | 0.00 | 93 | 1018.9 |
| 20260507015043 | 52 | 303 | 7.0 | 11.0 | 0.00 | 0.00 | 0.00 | 93 | 1018.9 |
| 20260507014550 | 53 | 300 | 6.0 | 10.0 | 0.00 | 0.00 | 0.00 | 92 | 1018.9 |
| 20260507014044 | 53 | 308 | 6.0 | 10.0 | 0.00 | 0.00 | 0.00 | 91 | 1018.9 |
| 20260507013544 | 54 | 301 | 5.0 | 10.0 | 0.00 | 0.00 | 0.00 | 91 | 1018.9 |
| 20260507013057 | 54 | 292 | 6.0 | 10.0 | 0.00 | 0.00 | 0.00 | 90 | 1018.9 |
| 20260507012543 | 55 | 300 | 6.0 | 10.0 | 0.00 | 0.00 | 0.00 | 90 | 1018.9 |
| 20260507012044 | 54 | 305 | 4.0 | 10.0 | 0.00 | 0.00 | 0.00 | 90 | 1018.9 |
| 20260507011553 | 54 | 319 | 5.0 | 10.0 | 0.00 | 0.00 | 0.00 | 90 | 1018.9 |
| 20260507011046 | 54 | 300 | 7.0 | 10.0 | 0.00 | 0.00 | 0.00 | 90 | 1018.9 |
| 20260507010544 | 54 | 307 | 4.0 | 12.0 | 0.00 | 0.00 | 0.00 | 90 | 1018.9 |
| 20260507010048 | 55 | 305 | 7.0 | 12.0 | 0.00 | 0.00 | 0.00 | 89 | 1018.9 |
| 20260507005544 | 55 | 309 | 6.0 | 12.0 | 0.00 | 0.00 | 0.00 | 88 | 1018.9 |
| 20260507005044 | 55 | 314 | 7.0 | 12.0 | 0.00 | 0.00 | 0.00 | 87 | 1019.0 |
| 20260507004552 | 56 | 311 | 8.0 | 11.0 | 0.00 | 0.00 | 0.00 | 87 | 1018.9 |
| 20260507004045 | 56 | 312 | 7.0 | 11.0 | 0.00 | 0.00 | 0.00 | 87 | 1018.8 |
| 20260507003547 | 56 | 308 | 8.0 | 11.0 | 0.00 | 0.00 | 0.00 | 87 | 1018.7 |
| 20260507003051 | 56 | 305 | 8.0 | 11.0 | 0.00 | 0.00 | 0.00 | 86 | 1018.7 |
| 20260507002544 | 56 | 306 | 6.0 | 10.0 | 0.00 | 0.00 | 0.00 | 86 | 1018.5 |
| 20260507002043 | 56 | 317 | 7.0 | 10.0 | 0.00 | 0.00 | 0.00 | 86 | 1018.7 |
| 20260507001548 | 57 | 298 | 6.0 | 11.0 | 0.00 | 0.00 | 0.00 | 85 | 1018.7 |
| 20260507001044 | 57 | 316 | 6.0 | 11.0 | 0.00 | 0.00 | 0.00 | 85 | 1018.7 |
| 20260507000546 | 57 | 314 | 6.0 | 11.0 | 0.00 | 0.00 | 0.00 | 84 | 1018.6 |
| 20260507000053 | 58 | 305 | 5.0 | 13.0 | 0.00 | 0.00 | 0.00 | 84 | 1018.7 |
| 20260506235543 | 58 | 304 | 5.0 | 13.0 | 0.00 | 0.00 | 0.00 | 83 | 1018.7 |
| 20260506235048 | 58 | 302 | 8.0 | 13.0 | 0.00 | 0.00 | 0.00 | 82 | 1018.7 |
| 20260506234555 | 59 | 298 | 4.0 | 9.0 | 0.00 | 0.00 | 0.00 | 81 | 1018.6 |
| 20260506234048 | 59 | 298 | 5.0 | 8.0 | 0.00 | 0.00 | 0.00 | 81 | 1018.6 |
| 20260506233544 | 60 | 285 | 5.0 | 9.0 | 0.00 | 0.00 | 0.00 | 80 | 1018.6 |
| 20260506233049 | 60 | 289 | 4.0 | 10.0 | 0.00 | 0.00 | 0.00 | 81 | 1018.7 |
| 20260506232543 | 60 | 299 | 4.0 | 10.0 | 0.00 | 0.00 | 0.00 | 81 | 1018.7 |
| 20260506232044 | 60 | 315 | 6.0 | 10.0 | 0.00 | 0.00 | 0.00 | 80 | 1018.7 |
| 20260506231552 | 60 | 311 | 5.0 | 9.0 | 0.00 | 0.00 | 0.00 | 79 | 1018.8 |
| 20260506231044 | 60 | 304 | 5.0 | 9.0 | 0.00 | 0.00 | 0.00 | 79 | 1018.8 |
| 20260506230543 | 60 | 308 | 5.0 | 10.0 | 0.00 | 0.00 | 0.00 | 80 | 1018.9 |
| 20260506230046 | 60 | 311 | 6.0 | 10.0 | 0.00 | 0.00 | 0.00 | 80 | 1018.9 |
| 20260506225544 | 60 | 297 | 5.0 | 10.0 | 0.00 | 0.00 | 0.00 | 80 | 1019.0 |
| 20260506225043 | 60 | 292 | 6.0 | 9.0 | 0.00 | 0.00 | 0.00 | 79 | 1019.1 |
| 20260506224600 | 60 | 306 | 5.0 | 10.0 | 0.00 | 0.00 | 0.00 | 80 | 1019.2 |
| 20260506224042 | 60 | 293 | 5.0 | 10.0 | 0.00 | 0.00 | 0.00 | 78 | 1019.2 |
| 20260506223546 | 61 | 315 | 5.0 | 10.0 | 0.00 | 0.00 | 0.00 | 77 | 1019.3 |
| 20260506223052 | 62 | 296 | 6.0 | 10.0 | 0.00 | 0.00 | 0.00 | 76 | 1019.2 |
| 20260506222547 | 62 | 298 | 6.0 | 10.0 | 0.00 | 0.00 | 0.00 | 75 | 1019.2 |
| 20260506222044 | 63 | 309 | 5.0 | 10.0 | 0.00 | 0.00 | 0.00 | 75 | 1019.3 |
| 20260506221554 | 63 | 288 | 5.0 | 9.0 | 0.00 | 0.00 | 0.00 | 75 | 1019.3 |
| 20260506221043 | 63 | 291 | 5.0 | 9.0 | 0.00 | 0.00 | 0.00 | 74 | 1019.3 |
| 20260506220544 | 64 | 308 | 4.0 | 9.0 | 0.00 | 0.00 | 0.00 | 74 | 1019.4 |
| 20260506220049 | 64 | 295 | 3.0 | 9.0 | 0.00 | 0.00 | 0.00 | 73 | 1019.4 |
| 20260506215544 | 64 | 304 | 5.0 | 9.0 | 0.00 | 0.00 | 0.00 | 73 | 1019.4 |
| 20260506215043 | 64 | 296 | 4.0 | 8.0 | 0.00 | 0.00 | 0.00 | 74 | 1019.4 |
| 20260506214607 | 64 | 324 | 3.0 | 8.0 | 0.00 | 0.00 | 0.00 | 73 | 1019.6 |
| 20260506214044 | 64 | 301 | 3.0 | 8.0 | 0.00 | 0.00 | 0.00 | 74 | 1019.5 |
| 20260506213544 | 64 | 304 | 3.0 | 9.0 | 0.00 | 0.00 | 0.00 | 74 | 1019.6 |
| 20260506213051 | 63 | 321 | 3.0 | 10.0 | 0.00 | 0.00 | 0.00 | 74 | 1019.6 |
| 20260506212544 | 63 | 298 | 5.0 | 10.0 | 0.00 | 0.00 | 0.00 | 73 | 1019.5 |
| 20260506212043 | 64 | 305 | 5.0 | 9.0 | 0.00 | 0.00 | 0.00 | 73 | 1019.7 |
| 20260506211548 | 64 | 309 | 4.0 | 9.0 | 0.00 | 0.00 | 0.00 | 73 | 1019.6 |
| 20260506211043 | 64 | 326 | 5.0 | 9.0 | 0.00 | 0.00 | 0.00 | 72 | 1019.7 |
| 20260506210543 | 65 | 309 | 5.0 | 8.0 | 0.00 | 0.00 | 0.00 | 72 | 1019.6 |
| 20260506210055 | 64 | 301 | 4.0 | 8.0 | 0.00 | 0.00 | 0.00 | 72 | 1019.7 |
| 20260506205544 | 64 | 319 | 3.0 | 9.0 | 0.00 | 0.00 | 0.00 | 72 | 1019.7 |
| 20260506205044 | 64 | 295 | 4.0 | 9.0 | 0.00 | 0.00 | 0.00 | 71 | 1019.7 |
| 20260506204604 | 65 | 309 | 4.0 | 8.0 | 0.00 | 0.00 | 0.00 | 71 | 1019.8 |
| 20260506204043 | 64 | 325 | 2.0 | 5.0 | 0.00 | 0.00 | 0.00 | 73 | 1019.7 |
| 20260506203544 | 64 | 328 | 2.0 | 7.0 | 0.00 | 0.00 | 0.00 | 71 | 1019.8 |
| 20260506203055 | 64 | 305 | 2.0 | 7.0 | 0.00 | 0.00 | 0.00 | 71 | 1019.8 |
| 20260506202543 | 64 | 333 | 3.0 | 8.0 | 0.00 | 0.00 | 0.00 | 72 | 1020.0 |
| 20260506202045 | 64 | 331 | 3.0 | 10.0 | 0.00 | 0.00 | 0.00 | 72 | 1020.0 |
| 20260506201551 | 64 | 307 | 3.0 | 10.0 | 0.00 | 0.00 | 0.00 | 70 | 1020.0 |
| 20260506201043 | 65 | 318 | 2.0 | 5.0 | 0.00 | 0.00 | 0.00 | 70 | 1020.0 |
| 20260506200544 | 64 | 153 | 2.0 | 5.0 | 0.00 | 0.00 | 0.00 | 71 | 1020.1 |
| 20260506200050 | 64 | 301 | 3.0 | 5.0 | 0.00 | 0.00 | 0.00 | 71 | 1020.1 |
| 20260506195543 | 64 | 276 | 2.0 | 5.0 | 0.00 | 0.00 | 0.00 | 69 | 1020.0 |
| 20260506195046 | 65 | 312 | 2.0 | 8.0 | 0.00 | 0.00 | 0.00 | 67 | 1020.0 |
| 20260506194600 | 66 | 305 | 3.0 | 8.0 | 0.00 | 0.00 | 0.00 | 66 | 1020.1 |
| 20260506194049 | 67 | 316 | 1.0 | 5.0 | 0.00 | 0.00 | 0.00 | 63 | 1020.0 |
| 20260506193544 | 68 | 355 | 1.0 | 4.0 | 0.00 | 0.00 | 0.00 | 62 | 1020.0 |
| 20260506193052 | 69 | 0 | 1.0 | 5.0 | 0.00 | 0.00 | 0.00 | 60 | 1020.0 |
| 20260506192558 | 68 | 78 | 1.0 | 5.0 | 0.00 | 0.00 | 0.00 | 60 | 1020.1 |
| 20260506192044 | 68 | 69 | 2.0 | 4.0 | 0.00 | 0.00 | 0.00 | 61 | 1020.1 |
| 20260506191555 | 67 | 0 | 2.0 | 7.0 | 0.00 | 0.00 | 0.00 | 60 | 1020.2 |
| 20260506191044 | 67 | 108 | 2.0 | 7.0 | 0.00 | 0.00 | 0.00 | 62 | 1020.2 |
| 20260506190543 | 67 | 138 | 2.0 | 7.0 | 0.00 | 0.00 | 0.00 | 61 | 1020.2 |
| 20260506190053 | 67 | 60 | 2.0 | 6.0 | 0.00 | 0.00 | 0.00 | 60 | 1020.2 |
| 20260506185543 | 67 | 90 | 2.0 | 6.0 | 0.00 | 0.00 | 0.00 | 63 | 1020.2 |
| 20260506185043 | 66 | 109 | 0.0 | 5.0 | 0.00 | 0.00 | 0.00 | 67 | 1020.2 |
| 20260506184556 | 66 | 141 | 1.0 | 5.0 | 0.00 | 0.00 | 0.00 | 67 | 1020.2 |
| 20260506184044 | 65 | 61 | 0.0 | 5.0 | 0.00 | 0.00 | 0.00 | 69 | 1020.3 |
| 20260506183545 | 63 | 0 | 1.0 | 5.0 | 0.00 | 0.00 | 0.00 | 72 | 1020.3 |
| 20260506183100 | 63 | 0 | 0.0 | 3.0 | 0.00 | 0.00 | 0.00 | 72 | 1020.3 |
| 20260506182543 | 62 | 317 | 1.0 | 3.0 | 0.00 | 0.00 | 0.00 | 74 | 1020.3 |
| 20260506182043 | 62 | 311 | 1.0 | 3.0 | 0.00 | 0.00 | 0.00 | 74 | 1020.5 |
| 20260506181559 | 62 | 320 | 0.0 | 3.0 | 0.00 | 0.00 | 0.00 | 74 | 1020.5 |
| 20260506181043 | 62 | 207 | 1.0 | 2.0 | 0.00 | 0.00 | 0.00 | 75 | 1020.3 |
| 20260506180544 | 61 | 190 | 1.0 | 2.0 | 0.00 | 0.00 | 0.00 | 75 | 1020.3 |
| 20260506180052 | 61 | 189 | 1.0 | 3.0 | 0.00 | 0.00 | 0.00 | 74 | 1020.2 |
| 20260506175543 | 61 | 0 | 0.0 | 3.0 | 0.00 | 0.00 | 0.00 | 76 | 1020.3 |
| 20260506175047 | 60 | 0 | 0.0 | 1.0 | 0.00 | 0.00 | 0.00 | 77 | 1020.3 |
| 20260506174555 | 60 | 0 | 0.0 | 4.0 | 0.00 | 0.00 | 0.00 | 77 | 1020.3 |
| 20260506174046 | 59 | 0 | 1.0 | 4.0 | 0.00 | 0.00 | 0.00 | 78 | 1020.2 |
| 20260506173544 | 59 | 289 | 1.0 | 4.0 | 0.00 | 0.00 | 0.00 | 78 | 1020.2 |
| 20260506173051 | 59 | 257 | 1.0 | 4.0 | 0.00 | 0.00 | 0.00 | 79 | 1020.2 |
| 20260506172543 | 58 | 233 | 0.0 | 3.0 | 0.00 | 0.00 | 0.00 | 79 | 1020.2 |
| 20260506172045 | 58 | 0 | 1.0 | 3.0 | 0.00 | 0.00 | 0.00 | 78 | 1020.2 |
| 20260506171557 | 58 | 281 | 1.0 | 4.0 | 0.00 | 0.00 | 0.00 | 79 | 1020.2 |
| 20260506171044 | 58 | 0 | 1.0 | 4.0 | 0.00 | 0.00 | 0.00 | 80 | 1020.3 |
| 20260506170544 | 58 | 246 | 0.0 | 5.0 | 0.00 | 0.00 | 0.00 | 80 | 1020.3 |
| 20260506170057 | 58 | 102 | 1.0 | 5.0 | 0.00 | 0.00 | 0.00 | 80 | 1020.3 |
| 20260506165543 | 57 | 0 | 1.0 | 6.0 | 0.00 | 0.00 | 0.00 | 80 | 1020.2 |
| 20260506165044 | 57 | 146 | 1.0 | 6.0 | 0.00 | 0.00 | 0.00 | 80 | 1020.3 |
| 20260506164601 | 57 | 150 | 2.0 | 6.0 | 0.00 | 0.00 | 0.00 | 80 | 1020.2 |
| 20260506164043 | 57 | 0 | 0.0 | 3.0 | 0.00 | 0.00 | 0.00 | 81 | 1020.2 |
| 20260506163543 | 57 | 0 | 0.0 | 5.0 | 0.00 | 0.00 | 0.00 | 82 | 1020.3 |
| 20260506163105 | 56 | 0 | 1.0 | 5.0 | 0.00 | 0.00 | 0.00 | 82 | 1020.2 |
| 20260506162543 | 56 | 157 | 2.0 | 5.0 | 0.00 | 0.00 | 0.00 | 81 | 1020.3 |
| 20260506162045 | 56 | 146 | 1.0 | 4.0 | 0.00 | 0.00 | 0.00 | 82 | 1020.2 |
| 20260506161604 | 56 | 0 | 2.0 | 4.0 | 0.00 | 0.00 | 0.00 | 82 | 1020.3 |
| 20260506161043 | 56 | 104 | 1.0 | 6.0 | 0.00 | 0.00 | 0.00 | 83 | 1020.2 |
| 20260506160544 | 56 | 143 | 1.0 | 6.0 | 0.00 | 0.00 | 0.00 | 83 | 1020.2 |
| 20260506160048 | 55 | 85 | 1.0 | 3.0 | 0.00 | 0.00 | 0.00 | 83 | 1020.2 |
| 20260506155543 | 55 | 82 | 1.0 | 3.0 | 0.00 | 0.00 | 0.00 | 84 | 1020.2 |
| 20260506155047 | 55 | 78 | 1.0 | 3.0 | 0.00 | 0.00 | 0.00 | 85 | 1020.1 |
| 20260506154608 | 54 | 0 | 1.0 | 3.0 | 0.00 | 0.00 | 0.00 | 86 | 1020.1 |
| 20260506154044 | 54 | 90 | 1.0 | 3.0 | 0.00 | 0.00 | 0.00 | 87 | 1020.2 |
| 20260506153544 | 53 | 84 | 1.0 | 4.0 | 0.00 | 0.00 | 0.00 | 88 | 1020.2 |
| 20260506153048 | 53 | 0 | 1.0 | 4.0 | 0.00 | 0.00 | 0.00 | 89 | 1020.2 |
| 20260506152545 | 53 | 0 | 1.0 | 3.0 | 0.00 | 0.00 | 0.00 | 89 | 1020.2 |
| 20260506152043 | 52 | 109 | 1.0 | 3.0 | 0.00 | 0.00 | 0.00 | 90 | 1020.1 |
| 20260506151558 | 52 | 111 | 1.0 | 3.0 | 0.00 | 0.00 | 0.00 | 92 | 1020.1 |
| 20260506151043 | 51 | 80 | 0.0 | 4.0 | 0.00 | 0.00 | 0.00 | 93 | 1020.2 |
| 20260506150547 | 51 | 80 | 1.0 | 4.0 | 0.00 | 0.00 | 0.00 | 93 | 1020.1 |
| 20260506150053 | 51 | 86 | 2.0 | 5.0 | 0.00 | 0.00 | 0.00 | 93 | 1020.2 |
| 20260506145546 | 50 | 71 | 2.0 | 5.0 | 0.00 | 0.00 | 0.00 | 93 | 1020.1 |
| 20260506145043 | 50 | 82 | 1.0 | 5.0 | 0.00 | 0.00 | 0.00 | 93 | 1020.1 |
| 20260506144601 | 50 | 85 | 2.0 | 4.0 | 0.00 | 0.00 | 0.00 | 93 | 1020.1 |
| 20260506144043 | 50 | 88 | 2.0 | 4.0 | 0.00 | 0.00 | 0.00 | 93 | 1020.1 |
| 20260506143544 | 50 | 77 | 2.0 | 5.0 | 0.00 | 0.00 | 0.00 | 94 | 1020.0 |
| 20260506143054 | 49 | 74 | 2.0 | 5.0 | 0.00 | 0.00 | 0.00 | 94 | 1020.0 |
| 20260506142547 | 49 | 78 | 2.0 | 5.0 | 0.00 | 0.00 | 0.00 | 94 | 1020.0 |
| 20260506142043 | 49 | 77 | 1.0 | 5.0 | 0.00 | 0.00 | 0.00 | 94 | 1020.0 |
| 20260506141551 | 49 | 69 | 2.0 | 5.0 | 0.00 | 0.00 | 0.00 | 94 | 1019.9 |
| 20260506141043 | 49 | 81 | 2.0 | 4.0 | 0.00 | 0.00 | 0.00 | 94 | 1020.0 |
| 20260506140543 | 49 | 82 | 1.0 | 4.0 | 0.00 | 0.00 | 0.00 | 94 | 1019.8 |
| 20260506140059 | 48 | 0 | 0.0 | 4.0 | 0.00 | 0.00 | 0.00 | 94 | 1019.8 |
| 20260506135543 | 48 | 100 | 0.0 | 3.0 | 0.00 | 0.00 | 0.00 | 94 | 1019.7 |
| 20260506135045 | 48 | 100 | 0.0 | 4.0 | 0.00 | 0.00 | 0.00 | 94 | 1019.8 |
| 20260506134557 | 48 | 100 | 0.0 | 4.0 | 0.00 | 0.00 | 0.00 | 94 | 1019.7 |
| 20260506134044 | 48 | 0 | 1.0 | 3.0 | 0.00 | 0.00 | 0.00 | 94 | 1019.6 |
| 20260506133543 | 48 | 88 | 1.0 | 3.0 | 0.00 | 0.00 | 0.00 | 94 | 1019.5 |
| 20260506133102 | 48 | 79 | 0.0 | 3.0 | 0.00 | 0.00 | 0.00 | 94 | 1019.4 |
| 20260506132543 | 48 | 41 | 0.0 | 3.0 | 0.00 | 0.00 | 0.00 | 94 | 1019.5 |
| 20260506132044 | 48 | 41 | 1.0 | 3.0 | 0.00 | 0.00 | 0.00 | 94 | 1019.3 |
| 20260506131552 | 48 | 39 | 1.0 | 3.0 | 0.00 | 0.00 | 0.00 | 94 | 1019.4 |
| 20260506131043 | 48 | 15 | 1.0 | 3.0 | 0.00 | 0.00 | 0.00 | 94 | 1019.3 |
| 20260506130544 | 48 | 14 | 1.0 | 2.0 | 0.00 | 0.00 | 0.00 | 94 | 1019.3 |
| 20260506130052 | 48 | 13 | 1.0 | 2.0 | 0.00 | 0.00 | 0.00 | 93 | 1019.3 |
| 20260506125543 | 48 | 13 | 1.0 | 3.0 | 0.00 | 0.00 | 0.00 | 93 | 1019.3 |
| 20260506125044 | 48 | 13 | 1.0 | 3.0 | 0.00 | 0.00 | 0.00 | 93 | 1019.3 |
| 20260506124549 | 48 | 13 | 1.0 | 3.0 | 0.00 | 0.00 | 0.00 | 93 | 1019.3 |
| 20260506124044 | 48 | 13 | 1.0 | 3.0 | 0.00 | 0.00 | 0.00 | 94 | 1019.2 |
| 20260506123548 | 48 | 355 | 1.0 | 2.0 | 0.00 | 0.00 | 0.00 | 93 | 1019.2 |
| 20260506123051 | 48 | 355 | 1.0 | 2.0 | 0.00 | 0.00 | 0.00 | 93 | 1019.1 |
| 20260506122544 | 48 | 355 | 1.0 | 2.0 | 0.00 | 0.00 | 0.00 | 93 | 1019.1 |
| 20260506122043 | 48 | 355 | 1.0 | 2.0 | 0.00 | 0.00 | 0.00 | 93 | 1019.1 |
| 20260506121554 | 49 | 355 | 1.0 | 2.0 | 0.00 | 0.00 | 0.00 | 93 | 1019.1 |
| 20260506121044 | 49 | 0 | 0.0 | 2.0 | 0.00 | 0.00 | 0.00 | 93 | 1019.0 |
| 20260506120544 | 49 | 355 | 0.0 | 2.0 | 0.00 | 0.00 | 0.00 | 93 | 1019.0 |
| 20260506120053 | 49 | 355 | 1.0 | 2.0 | 0.00 | 0.00 | 0.00 | 93 | 1019.0 |
| 20260506115544 | 49 | 333 | 1.0 | 2.0 | 0.00 | 0.00 | 0.00 | 93 | 1018.9 |
| 20260506115043 | 49 | 327 | 0.0 | 2.0 | 0.00 | 0.00 | 0.00 | 93 | 1019.0 |
| 20260506114601 | 49 | 327 | 0.0 | 2.0 | 0.00 | 0.00 | 0.00 | 93 | 1018.9 |
| 20260506114043 | 49 | 327 | 1.0 | 2.0 | 0.00 | 0.00 | 0.00 | 93 | 1018.9 |
| 20260506113543 | 49 | 0 | 1.0 | 2.0 | 0.00 | 0.00 | 0.00 | 93 | 1018.9 |
| 20260506113100 | 49 | 327 | 0.0 | 2.0 | 0.00 | 0.00 | 0.00 | 93 | 1018.8 |
| 20260506112544 | 49 | 0 | 0.0 | 2.0 | 0.00 | 0.00 | 0.00 | 93 | 1018.9 |
| 20260506112044 | 49 | 0 | 0.0 | 2.0 | 0.00 | 0.00 | 0.00 | 93 | 1018.8 |
| 20260506111602 | 49 | 0 | 1.0 | 2.0 | 0.00 | 0.00 | 0.00 | 93 | 1018.9 |
| 20260506111046 | 49 | 327 | 1.0 | 2.0 | 0.00 | 0.00 | 0.00 | 94 | 1018.8 |
| 20260506110544 | 49 | 327 | 1.0 | 2.0 | 0.00 | 0.00 | 0.00 | 94 | 1018.7 |
| 20260506110052 | 49 | 327 | 0.0 | 2.0 | 0.00 | 0.00 | 0.00 | 93 | 1018.7 |
| 20260506105544 | 49 | 327 | 0.0 | 2.0 | 0.00 | 0.00 | 0.00 | 93 | 1018.7 |
| 20260506105043 | 49 | 327 | 1.0 | 2.0 | 0.00 | 0.00 | 0.00 | 94 | 1018.6 |
| 20260506104556 | 49 | 327 | 1.0 | 2.0 | 0.00 | 0.00 | 0.00 | 94 | 1018.6 |
| 20260506104044 | 49 | 0 | 0.0 | 2.0 | 0.00 | 0.00 | 0.00 | 94 | 1018.7 |
| 20260506103543 | 49 | 0 | 0.0 | 1.0 | 0.00 | 0.00 | 0.00 | 94 | 1018.6 |
| 20260506103057 | 48 | 0 | 0.0 | 2.0 | 0.00 | 0.00 | 0.00 | 94 | 1018.6 |
| 20260506102544 | 48 | 0 | 0.0 | 2.0 | 0.00 | 0.00 | 0.00 | 94 | 1018.6 |
| 20260506102044 | 48 | 327 | 1.0 | 3.0 | 0.00 | 0.00 | 0.00 | 94 | 1018.7 |
| 20260506101552 | 48 | 327 | 1.0 | 4.0 | 0.00 | 0.00 | 0.00 | 94 | 1018.7 |
| 20260506101046 | 48 | 327 | 1.0 | 4.0 | 0.00 | 0.00 | 0.00 | 94 | 1018.7 |
| 20260506100543 | 48 | 327 | 2.0 | 5.0 | 0.00 | 0.00 | 0.00 | 94 | 1018.7 |
| 20260506100218 | 48 | 327 | 2.0 | 5.0 | 0.00 | 0.00 | 0.00 | 94 | 1018.7 |
| 20260506095544 | 48 | 315 | 3.0 | 5.0 | 0.00 | 0.00 | 0.00 | 94 | 1018.6 |
| 20260506095047 | 48 | 313 | 3.0 | 4.0 | 0.00 | 0.00 | 0.00 | 94 | 1018.7 |
| 20260506094556 | 48 | 317 | 3.0 | 4.0 | 0.00 | 0.00 | 0.00 | 95 | 1018.8 |
| 20260506094044 | 48 | 317 | 2.0 | 5.0 | 0.00 | 0.00 | 0.00 | 95 | 1018.8 |
| 20260506093544 | 48 | 316 | 3.0 | 5.0 | 0.00 | 0.00 | 0.00 | 95 | 1018.8 |
| 20260506093102 | 48 | 316 | 2.0 | 3.0 | 0.00 | 0.00 | 0.00 | 95 | 1018.8 |
| 20260506092546 | 48 | 316 | 2.0 | 3.0 | 0.00 | 0.00 | 0.00 | 95 | 1018.8 |
| 20260506092045 | 48 | 316 | 1.0 | 3.0 | 0.00 | 0.00 | 0.00 | 95 | 1018.7 |
| 20260506091551 | 48 | 316 | 2.0 | 4.0 | 0.00 | 0.00 | 0.00 | 95 | 1018.7 |
| 20260506091047 | 48 | 316 | 2.0 | 5.0 | 0.00 | 0.00 | 0.00 | 95 | 1018.7 |
| 20260506090544 | 48 | 316 | 2.0 | 5.0 | 0.00 | 0.00 | 0.00 | 95 | 1018.6 |
| 20260506090057 | 48 | 316 | 3.0 | 5.0 | 0.00 | 0.00 | 0.00 | 94 | 1018.6 |
| 20260506085544 | 48 | 312 | 2.0 | 5.0 | 0.00 | 0.00 | 0.00 | 94 | 1018.6 |
| 20260506085044 | 48 | 317 | 2.0 | 4.0 | 0.00 | 0.00 | 0.00 | 94 | 1018.6 |
| 20260506084600 | 48 | 317 | 1.0 | 4.0 | 0.00 | 0.00 | 0.00 | 95 | 1018.6 |
| 20260506084044 | 48 | 317 | 2.0 | 4.0 | 0.00 | 0.00 | 0.00 | 95 | 1018.6 |
| 20260506083545 | 48 | 315 | 2.0 | 5.0 | 0.00 | 0.00 | 0.00 | 95 | 1018.6 |
| 20260506083059 | 48 | 315 | 3.0 | 5.0 | 0.00 | 0.00 | 0.00 | 95 | 1018.7 |
| 20260506082542 | 48 | 313 | 3.0 | 5.0 | 0.00 | 0.00 | 0.00 | 95 | 1018.7 |
| 20260506082043 | 48 | 312 | 3.0 | 5.0 | 0.00 | 0.00 | 0.00 | 95 | 1018.8 |
| 20260506081558 | 48 | 312 | 2.0 | 5.0 | 0.00 | 0.00 | 0.00 | 95 | 1018.7 |
| 20260506081043 | 48 | 309 | 3.0 | 5.0 | 0.00 | 0.00 | 0.00 | 94 | 1018.7 |
| 20260506080543 | 48 | 307 | 3.0 | 5.0 | 0.00 | 0.00 | 0.00 | 94 | 1018.8 |
| 20260506073053 | 48 | 309 | 3.0 | 8.0 | 0.00 | 0.00 | 0.00 | 94 | 1018.4 |
| 20260506072543 | 48 | 308 | 3.0 | 6.0 | 0.00 | 0.00 | 0.00 | 95 | 1018.3 |
| 20260506072043 | 48 | 299 | 3.0 | 5.0 | 0.00 | 0.00 | 0.00 | 95 | 1018.3 |
| 20260506071551 | 48 | 313 | 3.0 | 5.0 | 0.00 | 0.00 | 0.00 | 95 | 1018.3 |
| 20260506071042 | 48 | 313 | 3.0 | 5.0 | 0.00 | 0.00 | 0.00 | 95 | 1018.3 |
| 20260506070543 | 48 | 315 | 3.0 | 5.0 | 0.00 | 0.00 | 0.00 | 95 | 1018.3 |
| 20260506062042 | 48 | 313 | 3.0 | 5.0 | 0.00 | 0.00 | 0.00 | 95 | 1018.2 |
| 20260506061555 | 48 | 313 | 3.0 | 5.0 | 0.00 | 0.00 | 0.00 | 95 | 1018.1 |
| 20260506061046 | 48 | 312 | 3.0 | 5.0 | 0.00 | 0.00 | 0.00 | 95 | 1018.0 |
| 20260506060543 | 49 | 315 | 3.0 | 7.0 | 0.00 | 0.00 | 0.00 | 95 | 1018.1 |
| 20260506051044 | 49 | 309 | 3.0 | 5.0 | 0.00 | 0.00 | 0.00 | 95 | 1017.8 |
| 20260506050543 | 49 | 309 | 3.0 | 5.0 | 0.00 | 0.00 | 0.00 | 94 | 1017.8 |
| 20260506045047 | 49 | 317 | 2.0 | 4.0 | 0.00 | 0.00 | 0.00 | 94 | 1017.7 |
| 20260506044628 | 49 | 317 | 2.0 | 5.0 | 0.00 | 0.00 | 0.00 | 94 | 1017.6 |
| 20260506044046 | 49 | 318 | 3.0 | 5.0 | 0.00 | 0.00 | 0.00 | 94 | 1017.6 |
| 20260506043545 | 49 | 319 | 2.0 | 4.0 | 0.00 | 0.00 | 0.00 | 94 | 1017.4 |
| 20260506043053 | 49 | 320 | 3.0 | 4.0 | 0.00 | 0.00 | 0.00 | 94 | 1017.5 |
| 20260506042544 | 49 | 320 | 2.0 | 4.0 | 0.00 | 0.00 | 0.00 | 94 | 1017.5 |
| 20260506042045 | 49 | 316 | 2.0 | 4.0 | 0.00 | 0.00 | 0.00 | 94 | 1017.4 |
| 20260506041551 | 49 | 318 | 2.0 | 4.0 | 0.00 | 0.00 | 0.00 | 94 | 1017.3 |
| 20260506041044 | 49 | 318 | 2.0 | 4.0 | 0.00 | 0.00 | 0.00 | 94 | 1017.2 |
| 20260506040543 | 49 | 318 | 2.0 | 4.0 | 0.00 | 0.00 | 0.00 | 94 | 1017.2 |
| 20260506040048 | 49 | 317 | 3.0 | 4.0 | 0.00 | 0.00 | 0.00 | 93 | 1017.2 |
| 20260506035547 | 49 | 318 | 2.0 | 4.0 | 0.00 | 0.00 | 0.00 | 93 | 1017.2 |
| 20260506035044 | 49 | 318 | 2.0 | 4.0 | 0.00 | 0.00 | 0.00 | 93 | 1017.1 |
| 20260506034549 | 49 | 310 | 2.0 | 4.0 | 0.00 | 0.00 | 0.00 | 93 | 1017.0 |
| 20260506034043 | 49 | 310 | 2.0 | 4.0 | 0.00 | 0.00 | 0.00 | 93 | 1016.9 |
| 20260506033545 | 49 | 310 | 2.0 | 4.0 | 0.00 | 0.00 | 0.00 | 93 | 1017.0 |
| 20260506033049 | 49 | 310 | 0.0 | 5.0 | 0.00 | 0.00 | 0.00 | 93 | 1016.9 |
| 20260506032544 | 49 | 310 | 2.0 | 5.0 | 0.00 | 0.00 | 0.00 | 94 | 1016.9 |
| 20260506032044 | 49 | 310 | 3.0 | 5.0 | 0.00 | 0.00 | 0.00 | 94 | 1016.6 |
| 20260506031552 | 49 | 320 | 3.0 | 4.0 | 0.00 | 0.00 | 0.00 | 94 | 1016.6 |
| 20260506031045 | 49 | 325 | 2.0 | 4.0 | 0.00 | 0.00 | 0.00 | 94 | 1016.5 |
| 20260506030544 | 49 | 325 | 2.0 | 4.0 | 0.00 | 0.00 | 0.00 | 94 | 1016.6 |
| 20260506030057 | 49 | 315 | 2.0 | 5.0 | 0.00 | 0.00 | 0.00 | 94 | 1016.6 |
| 20260506025544 | 49 | 315 | 2.0 | 7.0 | 0.00 | 0.00 | 0.00 | 94 | 1016.5 |